STARLINK-31964, 59895

Orbit data source: Space-Track

STARLINK-31964, 59895 is a payload satellite owned by SpaceX/Seattle (US) in LEO that was launched on Tue, 28 May 2024 UTC via an FALCON 9 launch vehicle from the Air Force Eastern Test Range (AFETR). Payload-class satellites include a variety of spacecraft equipped with specific instruments for various scientific and technological missions. These include communications satellites like Starlink; space stations such as the ISS; scientific satellites like the Hubble; Earth observation satellites from companies like Planet Labs, Umbra, and HawkEye 360; GPS; miniature CubeSats for education and research; and military/defense satellites.

Loading next visibility...
Identifier
59895, 2024-100L
Orbit
LEO
Country
Flag of USUS
Related business
Manufacturer
SpaceX/Seattle
Mission
Operational spacecraft
Bus & Motor
STARLINK V2M, Unknown motor
Mass
730 kg wet, ~700 kg dry
Launch date (UTC)
2024-05-28 (1 year ago)
Launch vehicle
FALCON 9
Launch site
Air Force Eastern Test Range (AFETR)
Object type
Payload
Rocket body
Debris
Shape & HBR
Unknown
Radar Cross Section
Large (>1 m²)

Expand to show TLE details & history
Last TLE update: 1 day ago

TLE from 1 day ago
0 STARLINK-31964
1 59895U 24100L   25260.04165120  .00000816  00000-0  39173-4 0  9999
2 59895  42.9998  25.7245 0001327 270.2853  89.7847 15.27581282 74559
Epoch: 2025-09-17T00:59Z
TLE epoch observation values (Epoch: 2025-09-17T00:59:58.663Z)
Latitude
Longitude
14.50678°
Altitude
482.817 km
Speed
7.626 km/s
True Right ascension
01h 42m 53s
True Declination
0° 00' 00"
Sunlit
Object was in full shadow at epoch
Visualization orbit readout
Latitude
Unknown
Longitude
Unknown
Altitude
Unknown
Speed
Unknown
Apparent Right ascension
Unknown
Apparent Declination
Unknown
Sunlit
N/A
Visualization observer readout
Local Sidereal Time
17:34:30
Azimuth
Unknown
Elevation
Unknown
Doppler factor
Unknown
Orbital elements
Apogee altitude
485.901 km
Perigee altitude
484.08 km
Semi-major axis
6,863.127 km
Eccentricity
0.00013
Inclination
42.9998°
RAAN
25.7245°
Arg. of periapsis
270.2853°
True anomaly
89.79991°
Mean anomaly
89.7847°
Eccentric anomaly
89.7923°
Mean motion
3.81733 °/min
Orbital period
94.31 mins
BSTAR
0.000039173
Loading maneuver chart data...
Computing Atmospheric mass density...
Loading historical data...
Loading historical data...
Loading historical data...
Loading historical data...
Loading historical data...
Loading historical data...
Loading historical data...

Documentation

Showing up to 5 results
|